owner,sensor,date,latitude,longitude,vertical_datum,sea_water_practical_salinity,qcFlag 
NERRS,ioos:station:NOAA.NERRS:gndpcwq:1,2016-02-01T16:00:00Z,30.3486,-88.4185,1.43,19.8,1111122 
NERRS,ioos:station:NOAA.NERRS:gndpcwq:1,2016-02-01T17:00:00Z,30.3486,-88.4185,1.46,19.9,1111122 
NERRS,ioos:station:NOAA.NERRS:gndpcwq:1,2016-02-01T18:00:00Z,30.3486,-88.4185,1.48,19.9,1111122 
NERRS,ioos:station:NOAA.NERRS:gndpcwq:1,2016-02-01T19:00:00Z,30.3486,-88.4185,1.49,19.7,1111122 
NERRS,ioos:station:NOAA.NERRS:gndpcwq:1,2016-02-01T20:00:00Z,30.3486,-88.4185,1.5,19.6,1111122 
NERRS,ioos:station:NOAA.NERRS:gndpcwq:1,2016-02-01T21:00:00Z,30.3486,-88.4185,1.51,19.5,1111122 
NERRS,ioos:station:NOAA.NERRS:gndpcwq:1,2016-02-01T22:00:00Z,30.3486,-88.4185,1.51,19.7,1111122 
NERRS,ioos:station:NOAA.NERRS:gndpcwq:1,2016-02-01T23:00:00Z,30.3486,-88.4185,1.5,19.6,1111122 
NERRS,ioos:station:NOAA.NERRS:gndpcwq:1,2016-02-02T00:00:00Z,30.3486,-88.4185,1.5,19.6,1111122 
NERRS,ioos:station:NOAA.NERRS:gndpcwq:1,2016-02-02T01:00:00Z,30.3486,-88.4185,1.48,19.5,1111122 
NERRS,ioos:station:NOAA.NERRS:gndpcwq:1,2016-02-02T02:00:00Z,30.3486,-88.4185,1.47,19.0,1111122 
NERRS,ioos:station:NOAA.NERRS:gndpcwq:1,2016-02-02T03:00:00Z,30.3486,-88.4185,1.45,18.8,1111122 
NERRS,ioos:station:NOAA.NERRS:gndpcwq:1,2016-02-02T04:00:00Z,30.3486,-88.4185,1.42,18.8,1111122 
NERRS,ioos:station:NOAA.NERRS:gndpcwq:1,2016-02-02T05:00:00Z,30.3486,-88.4185,1.39,18.6,1111122 
NERRS,ioos:station:NOAA.NERRS:gndpcwq:1,2016-02-02T06:00:00Z,30.3486,-88.4185,1.37,18.7,1111122 
NERRS,ioos:station:NOAA.NERRS:gndpcwq:1,2016-02-02T07:00:00Z,30.3486,-88.4185,1.35,18.5,1111122 
NERRS,ioos:station:NOAA.NERRS:gndpcwq:1,2016-02-02T08:00:00Z,30.3486,-88.4185,1.33,18.3,1111122 
NERRS,ioos:station:NOAA.NERRS:gndpcwq:1,2016-02-02T09:00:00Z,30.3486,-88.4185,1.33,18.2,1111122 
NERRS,ioos:station:NOAA.NERRS:gndpcwq:1,2016-02-02T10:00:00Z,30.3486,-88.4185,1.33,18.2,1111122 
NERRS,ioos:station:NOAA.NERRS:gndpcwq:1,2016-02-02T11:00:00Z,30.3486,-88.4185,1.34,18.0,1111122 
NERRS,ioos:station:NOAA.NERRS:gndpcwq:1,2016-02-02T12:00:00Z,30.3486,-88.4185,1.37,17.5,1111122 
NERRS,ioos:station:NOAA.NERRS:gndpcwq:1,2016-02-02T13:00:00Z,30.3486,-88.4185,1.42,17.5,1111122 
NERRS,ioos:station:NOAA.NERRS:gndpcwq:1,2016-02-02T14:00:00Z,30.3486,-88.4185,1.47,17.6,1111122 
NERRS,ioos:station:NOAA.NERRS:gndpcwq:1,2016-02-02T15:00:00Z,30.3486,-88.4185,1.5,17.7,1111122 
NERRS,ioos:station:NOAA.NERRS:gndpcwq:1,2016-02-02T18:00:00Z,30.3486,-88.4185,1.64,17.1,1111122 
NERRS,ioos:station:NOAA.NERRS:gndpcwq:1,2016-02-02T19:00:00Z,30.3486,-88.4185,1.66,17.1,1111122 
NERRS,ioos:station:NOAA.NERRS:gndpcwq:1,2016-02-02T20:00:00Z,30.3486,-88.4185,1.69,17.2,1111122 
NERRS,ioos:station:NOAA.NERRS:gndpcwq:1,2016-02-02T21:00:00Z,30.3486,-88.4185,1.73,16.8,1111122 
NERRS,ioos:station:NOAA.NERRS:gndpcwq:1,2016-02-02T22:00:00Z,30.3486,-88.4185,1.79,16.8,1111122 
NERRS,ioos:station:NOAA.NERRS:gndpcwq:1,2016-02-02T23:00:00Z,30.3486,-88.4185,1.83,16.9,1111122 
NERRS,ioos:station:NOAA.NERRS:gndpcwq:1,2016-02-03T00:00:00Z,30.3486,-88.4185,1.82,16.7,1111122 
NERRS,ioos:station:NOAA.NERRS:gndpcwq:1,2016-02-03T01:00:00Z,30.3486,-88.4185,1.81,16.7,1111122 
NERRS,ioos:station:NOAA.NERRS:gndpcwq:1,2016-02-03T02:00:00Z,30.3486,-88.4185,1.77,16.7,1111122 
NERRS,ioos:station:NOAA.NERRS:gndpcwq:1,2016-02-03T03:00:00Z,30.3486,-88.4185,1.72,16.9,1111122 
NERRS,ioos:station:NOAA.NERRS:gndpcwq:1,2016-02-03T04:00:00Z,30.3486,-88.4185,1.66,16.2,1111122 
NERRS,ioos:station:NOAA.NERRS:gndpcwq:1,2016-02-03T05:00:00Z,30.3486,-88.4185,1.58,15.3,1111122 
NERRS,ioos:station:NOAA.NERRS:gndpcwq:1,2016-02-03T06:00:00Z,30.3486,-88.4185,1.53,15.4,1111122 
NERRS,ioos:station:NOAA.NERRS:gndpcwq:1,2016-02-03T07:00:00Z,30.3486,-88.4185,1.47,15.2,1111122 
NERRS,ioos:station:NOAA.NERRS:gndpcwq:1,2016-02-03T08:00:00Z,30.3486,-88.4185,1.41,15.9,1111122 
NERRS,ioos:station:NOAA.NERRS:gndpcwq:1,2016-02-03T09:00:00Z,30.3486,-88.4185,1.39,16.1,1111122 
NERRS,ioos:station:NOAA.NERRS:gndpcwq:1,2016-02-03T10:00:00Z,30.3486,-88.4185,1.37,16.2,1111122 
NERRS,ioos:station:NOAA.NERRS:gndpcwq:1,2016-02-03T11:00:00Z,30.3486,-88.4185,1.36,16.4,1111122 
NERRS,ioos:station:NOAA.NERRS:gndpcwq:1,2016-02-03T12:00:00Z,30.3486,-88.4185,1.27,14.4,1111122 
NERRS,ioos:station:NOAA.NERRS:gndpcwq:1,2016-02-03T13:00:00Z,30.3486,-88.4185,1.22,14.3,1111122 
NERRS,ioos:station:NOAA.NERRS:gndpcwq:1,2016-02-03T14:00:00Z,30.3486,-88.4185,1.22,15.7,1111122 
NERRS,ioos:station:NOAA.NERRS:gndpcwq:1,2016-02-03T15:00:00Z,30.3486,-88.4185,1.23,15.6,1111122 
NERRS,ioos:station:NOAA.NERRS:gndpcwq:1,2016-02-03T16:00:00Z,30.3486,-88.4185,1.35,15.4,1111122 
NERRS,ioos:station:NOAA.NERRS:gndpcwq:1,2016-02-03T17:00:00Z,30.3486,-88.4185,1.44,14.2,1111122 
NERRS,ioos:station:NOAA.NERRS:gndpcwq:1,2016-02-03T18:00:00Z,30.3486,-88.4185,1.5,14.3,1111122 
NERRS,ioos:station:NOAA.NERRS:gndpcwq:1,2016-02-03T19:00:00Z,30.3486,-88.4185,1.53,14.4,1111122 
NERRS,ioos:station:NOAA.NERRS:gndpcwq:1,2016-02-03T20:00:00Z,30.3486,-88.4185,1.56,14.6,1111122 
NERRS,ioos:station:NOAA.NERRS:gndpcwq:1,2016-02-03T21:00:00Z,30.3486,-88.4185,1.66,14.5,1111122 
NERRS,ioos:station:NOAA.NERRS:gndpcwq:1,2016-02-03T22:00:00Z,30.3486,-88.4185,1.71,14.5,1111122 
NERRS,ioos:station:NOAA.NERRS:gndpcwq:1,2016-02-03T23:00:00Z,30.3486,-88.4185,1.74,14.4,1111122 
NERRS,ioos:station:NOAA.NERRS:gndpcwq:1,2016-02-04T00:00:00Z,30.3486,-88.4185,1.73,14.3,1111122 
NERRS,ioos:station:NOAA.NERRS:gndpcwq:1,2016-02-04T01:00:00Z,30.3486,-88.4185,1.76,14.3,1111122 
NERRS,ioos:station:NOAA.NERRS:gndpcwq:1,2016-02-04T02:00:00Z,30.3486,-88.4185,1.69,14.1,1111122 
NERRS,ioos:station:NOAA.NERRS:gndpcwq:1,2016-02-04T03:00:00Z,30.3486,-88.4185,1.64,14.1,1111122 
NERRS,ioos:station:NOAA.NERRS:gndpcwq:1,2016-02-04T04:00:00Z,30.3486,-88.4185,1.59,14.2,1111122 
NERRS,ioos:station:NOAA.NERRS:gndpcwq:1,2016-02-04T05:00:00Z,30.3486,-88.4185,1.52,14.2,1111122 
NERRS,ioos:station:NOAA.NERRS:gndpcwq:1,2016-02-04T06:00:00Z,30.3486,-88.4185,1.42,14.6,1111122 
NERRS,ioos:station:NOAA.NERRS:gndpcwq:1,2016-02-04T07:00:00Z,30.3486,-88.4185,1.31,14.8,1111122 
NERRS,ioos:station:NOAA.NERRS:gndpcwq:1,2016-02-04T08:00:00Z,30.3486,-88.4185,1.24,15.5,1111122 
NERRS,ioos:station:NOAA.NERRS:gndpcwq:1,2016-02-04T09:00:00Z,30.3486,-88.4185,1.19,15.3,1111122 
NERRS,ioos:station:NOAA.NERRS:gndpcwq:1,2016-02-04T10:00:00Z,30.3486,-88.4185,1.11,14.8,1111122 
NERRS,ioos:station:NOAA.NERRS:gndpcwq:1,2016-02-04T11:00:00Z,30.3486,-88.4185,1.06,14.8,1111122 
NERRS,ioos:station:NOAA.NERRS:gndpcwq:1,2016-02-04T12:00:00Z,30.3486,-88.4185,1.1,15.2,1111122 
NERRS,ioos:station:NOAA.NERRS:gndpcwq:1,2016-02-04T13:00:00Z,30.3486,-88.4185,1.11,14.7,1111122 
NERRS,ioos:station:NOAA.NERRS:gndpcwq:1,2016-02-04T14:00:00Z,30.3486,-88.4185,1.17,14.6,1111122 
NERRS,ioos:station:NOAA.NERRS:gndpcwq:1,2016-02-04T15:00:00Z,30.3486,-88.4185,1.24,15.1,1111122 
NERRS,ioos:station:NOAA.NERRS:gndpcwq:1,2016-02-04T16:00:00Z,30.3486,-88.4185,1.31,15.0,1111122 
NERRS,ioos:station:NOAA.NERRS:gndpcwq:1,2016-02-04T17:00:00Z,30.3486,-88.4185,1.36,15.6,1111122 
NERRS,ioos:station:NOAA.NERRS:gndpcwq:1,2016-02-04T18:00:00Z,30.3486,-88.4185,1.4,15.3,1111122 
NERRS,ioos:station:NOAA.NERRS:gndpcwq:1,2016-02-04T19:00:00Z,30.3486,-88.4185,1.43,14.7,1111122 
NERRS,ioos:station:NOAA.NERRS:gndpcwq:1,2016-02-04T20:00:00Z,30.3486,-88.4185,1.43,14.4,1111122 
NERRS,ioos:station:NOAA.NERRS:gndpcwq:1,2016-02-04T21:00:00Z,30.3486,-88.4185,1.46,14.3,1111122 
NERRS,ioos:station:NOAA.NERRS:gndpcwq:1,2016-02-04T22:00:00Z,30.3486,-88.4185,1.44,14.4,1111122 
NERRS,ioos:station:NOAA.NERRS:gndpcwq:1,2016-02-04T23:00:00Z,30.3486,-88.4185,1.46,14.5,1111122 
NERRS,ioos:station:NOAA.NERRS:gndpcwq:1,2016-02-05T00:00:00Z,30.3486,-88.4185,1.47,15.2,1111122 
NERRS,ioos:station:NOAA.NERRS:gndpcwq:1,2016-02-05T01:00:00Z,30.3486,-88.4185,1.45,15.3,1111122 
NERRS,ioos:station:NOAA.NERRS:gndpcwq:1,2016-02-05T02:00:00Z,30.3486,-88.4185,1.43,15.3,1111122 
NERRS,ioos:station:NOAA.NERRS:gndpcwq:1,2016-02-05T03:00:00Z,30.3486,-88.4185,1.38,15.4,1111122 
NERRS,ioos:station:NOAA.NERRS:gndpcwq:1,2016-02-05T04:00:00Z,30.3486,-88.4185,1.33,14.9,1111122 
NERRS,ioos:station:NOAA.NERRS:gndpcwq:1,2016-02-05T05:00:00Z,30.3486,-88.4185,1.28,14.9,1111122 
NERRS,ioos:station:NOAA.NERRS:gndpcwq:1,2016-02-05T06:00:00Z,30.3486,-88.4185,1.22,14.8,1111122 
NERRS,ioos:station:NOAA.NERRS:gndpcwq:1,2016-02-05T07:00:00Z,30.3486,-88.4185,1.17,15.1,1111122 
NERRS,ioos:station:NOAA.NERRS:gndpcwq:1,2016-02-05T08:00:00Z,30.3486,-88.4185,1.12,15.5,1111122 
NERRS,ioos:station:NOAA.NERRS:gndpcwq:1,2016-02-05T10:00:00Z,30.3486,-88.4185,1.02,15.6,1111122 
NERRS,ioos:station:NOAA.NERRS:gndpcwq:1,2016-02-05T11:00:00Z,30.3486,-88.4185,1.01,16.8,1111122 
NERRS,ioos:station:NOAA.NERRS:gndpcwq:1,2016-02-05T12:00:00Z,30.3486,-88.4185,1.05,16.8,1111122 
NERRS,ioos:station:NOAA.NERRS:gndpcwq:1,2016-02-05T13:00:00Z,30.3486,-88.4185,1.1,17.1,1111122 
NERRS,ioos:station:NOAA.NERRS:gndpcwq:1,2016-02-05T14:00:00Z,30.3486,-88.4185,1.16,17.9,1111122 
NERRS,ioos:station:NOAA.NERRS:gndpcwq:1,2016-02-05T15:00:00Z,30.3486,-88.4185,1.19,18.6,1111122 
NERRS,ioos:station:NOAA.NERRS:gndpcwq:1,2016-02-05T16:00:00Z,30.3486,-88.4185,1.26,18.7,1111122 
NERRS,ioos:station:NOAA.NERRS:gndpcwq:1,2016-02-05T17:00:00Z,30.3486,-88.4185,1.29,19.2,1111122 
NERRS,ioos:station:NOAA.NERRS:gndpcwq:1,2016-02-05T18:00:00Z,30.3486,-88.4185,1.32,19.5,1111122 
NERRS,ioos:station:NOAA.NERRS:gndpcwq:1,2016-02-05T19:00:00Z,30.3486,-88.4185,1.35,19.1,1111122 
NERRS,ioos:station:NOAA.NERRS:gndpcwq:1,2016-02-05T20:00:00Z,30.3486,-88.4185,1.4,22.1,1111122 
NERRS,ioos:station:NOAA.NERRS:gndpcwq:1,2016-02-05T21:00:00Z,30.3486,-88.4185,1.43,22.6,1111122 
NERRS,ioos:station:NOAA.NERRS:gndpcwq:1,2016-02-05T23:00:00Z,30.3486,-88.4185,1.51,23.3,1111122 
NERRS,ioos:station:NOAA.NERRS:gndpcwq:1,2016-02-06T00:00:00Z,30.3486,-88.4185,1.53,23.3,1111122 
NERRS,ioos:station:NOAA.NERRS:gndpcwq:1,2016-02-06T01:00:00Z,30.3486,-88.4185,1.52,23.3,1111122 
NERRS,ioos:station:NOAA.NERRS:gndpcwq:1,2016-02-06T02:00:00Z,30.3486,-88.4185,1.48,23.2,1111122 
NERRS,ioos:station:NOAA.NERRS:gndpcwq:1,2016-02-06T03:00:00Z,30.3486,-88.4185,1.46,23.1,1111122 
NERRS,ioos:station:NOAA.NERRS:gndpcwq:1,2016-02-06T04:00:00Z,30.3486,-88.4185,1.41,23.1,1111122 
NERRS,ioos:station:NOAA.NERRS:gndpcwq:1,2016-02-06T05:00:00Z,30.3486,-88.4185,1.36,23.1,1111122 
NERRS,ioos:station:NOAA.NERRS:gndpcwq:1,2016-02-06T06:00:00Z,30.3486,-88.4185,1.28,23.0,1111122 
NERRS,ioos:station:NOAA.NERRS:gndpcwq:1,2016-02-06T07:00:00Z,30.3486,-88.4185,1.18,23.3,1111122 
NERRS,ioos:station:NOAA.NERRS:gndpcwq:1,2016-02-06T08:00:00Z,30.3486,-88.4185,1.1,23.4,1111122 
NERRS,ioos:station:NOAA.NERRS:gndpcwq:1,2016-02-06T09:00:00Z,30.3486,-88.4185,1.02,23.5,1111122 
NERRS,ioos:station:NOAA.NERRS:gndpcwq:1,2016-02-06T10:00:00Z,30.3486,-88.4185,0.98,23.5,1111122 
NERRS,ioos:station:NOAA.NERRS:gndpcwq:1,2016-02-06T11:00:00Z,30.3486,-88.4185,1.0,23.4,1111122 
NERRS,ioos:station:NOAA.NERRS:gndpcwq:1,2016-02-06T12:00:00Z,30.3486,-88.4185,1.02,23.2,1111122 
NERRS,ioos:station:NOAA.NERRS:gndpcwq:1,2016-02-06T13:00:00Z,30.3486,-88.4185,1.06,23.1,1111122 
NERRS,ioos:station:NOAA.NERRS:gndpcwq:1,2016-02-06T14:00:00Z,30.3486,-88.4185,1.09,23.1,1111122 
NERRS,ioos:station:NOAA.NERRS:gndpcwq:1,2016-02-06T15:00:00Z,30.3486,-88.4185,1.14,23.1,1111122 
NERRS,ioos:station:NOAA.NERRS:gndpcwq:1,2016-02-06T16:00:00Z,30.3486,-88.4185,1.15,23.1,1111122 
NERRS,ioos:station:NOAA.NERRS:gndpcwq:1,2016-02-06T17:00:00Z,30.3486,-88.4185,1.23,22.4,1111122 
NERRS,ioos:station:NOAA.NERRS:gndpcwq:1,2016-02-06T18:00:00Z,30.3486,-88.4185,1.29,23.2,1111122 
NERRS,ioos:station:NOAA.NERRS:gndpcwq:1,2016-02-06T19:00:00Z,30.3486,-88.4185,1.32,24.5,1111122 
NERRS,ioos:station:NOAA.NERRS:gndpcwq:1,2016-02-06T20:00:00Z,30.3486,-88.4185,1.36,25.0,1111122 
NERRS,ioos:station:NOAA.NERRS:gndpcwq:1,2016-02-06T21:00:00Z,30.3486,-88.4185,1.43,25.2,1111122 
NERRS,ioos:station:NOAA.NERRS:gndpcwq:1,2016-02-06T22:00:00Z,30.3486,-88.4185,1.45,24.8,1111122 
NERRS,ioos:station:NOAA.NERRS:gndpcwq:1,2016-02-06T23:00:00Z,30.3486,-88.4185,1.5,24.3,1111122 
NERRS,ioos:station:NOAA.NERRS:gndpcwq:1,2016-02-07T00:00:00Z,30.3486,-88.4185,1.53,23.1,1111122 
NERRS,ioos:station:NOAA.NERRS:gndpcwq:1,2016-02-07T01:00:00Z,30.3486,-88.4185,1.54,22.2,1111122 
NERRS,ioos:station:NOAA.NERRS:gndpcwq:1,2016-02-07T02:00:00Z,30.3486,-88.4185,1.54,21.9,1111122 
NERRS,ioos:station:NOAA.NERRS:gndpcwq:1,2016-02-07T03:00:00Z,30.3486,-88.4185,1.5,21.9,1111122 
NERRS,ioos:station:NOAA.NERRS:gndpcwq:1,2016-02-07T04:00:00Z,30.3486,-88.4185,1.45,21.7,1111122 
NERRS,ioos:station:NOAA.NERRS:gndpcwq:1,2016-02-07T05:00:00Z,30.3486,-88.4185,1.38,21.6,1111122 
NERRS,ioos:station:NOAA.NERRS:gndpcwq:1,2016-02-07T06:00:00Z,30.3486,-88.4185,1.34,21.6,1111122 
NERRS,ioos:station:NOAA.NERRS:gndpcwq:1,2016-02-07T07:00:00Z,30.3486,-88.4185,1.25,20.4,1111122 
NERRS,ioos:station:NOAA.NERRS:gndpcwq:1,2016-02-07T08:00:00Z,30.3486,-88.4185,1.13,20.8,1111122 
NERRS,ioos:station:NOAA.NERRS:gndpcwq:1,2016-02-07T09:00:00Z,30.3486,-88.4185,1.04,18.6,1111122 
NERRS,ioos:station:NOAA.NERRS:gndpcwq:1,2016-02-07T10:00:00Z,30.3486,-88.4185,0.97,18.6,1111122 
NERRS,ioos:station:NOAA.NERRS:gndpcwq:1,2016-02-07T11:00:00Z,30.3486,-88.4185,0.95,19.7,1111122 
NERRS,ioos:station:NOAA.NERRS:gndpcwq:1,2016-02-13T17:00:00Z,30.3486,-88.4185,1.46,14.7,1111122 
NERRS,ioos:station:NOAA.NERRS:gndpcwq:1,2016-02-13T18:00:00Z,30.3486,-88.4185,1.49,17.2,1111122 
NERRS,ioos:station:NOAA.NERRS:gndpcwq:1,2016-02-13T19:00:00Z,30.3486,-88.4185,1.47,18.2,1111122 
NERRS,ioos:station:NOAA.NERRS:gndpcwq:1,2016-02-13T20:00:00Z,30.3486,-88.4185,1.47,18.3,1111122 
NERRS,ioos:station:NOAA.NERRS:gndpcwq:1,2016-02-13T21:00:00Z,30.3486,-88.4185,1.48,18.5,1111122 
NERRS,ioos:station:NOAA.NERRS:gndpcwq:1,2016-02-13T22:00:00Z,30.3486,-88.4185,1.49,18.5,1111122 
NERRS,ioos:station:NOAA.NERRS:gndpcwq:1,2016-02-13T23:00:00Z,30.3486,-88.4185,1.49,18.6,1111122 
NERRS,ioos:station:NOAA.NERRS:gndpcwq:1,2016-02-14T00:00:00Z,30.3486,-88.4185,1.43,18.6,1111122 
NERRS,ioos:station:NOAA.NERRS:gndpcwq:1,2016-02-14T01:00:00Z,30.3486,-88.4185,1.35,18.5,1111122 
NERRS,ioos:station:NOAA.NERRS:gndpcwq:1,2016-02-14T02:00:00Z,30.3486,-88.4185,1.28,18.6,1111122 
NERRS,ioos:station:NOAA.NERRS:gndpcwq:1,2016-02-14T03:00:00Z,30.3486,-88.4185,1.23,18.9,1111122 
NERRS,ioos:station:NOAA.NERRS:gndpcwq:1,2016-02-14T04:00:00Z,30.3486,-88.4185,1.21,19.0,1111122 
NERRS,ioos:station:NOAA.NERRS:gndpcwq:1,2016-02-14T05:00:00Z,30.3486,-88.4185,1.19,18.6,1111122 
NERRS,ioos:station:NOAA.NERRS:gndpcwq:1,2016-02-14T06:00:00Z,30.3486,-88.4185,1.18,18.2,1111122 
NERRS,ioos:station:NOAA.NERRS:gndpcwq:1,2016-02-14T07:00:00Z,30.3486,-88.4185,1.18,18.6,1111122 
NERRS,ioos:station:NOAA.NERRS:gndpcwq:1,2016-02-14T08:00:00Z,30.3486,-88.4185,1.18,18.8,1111122 
NERRS,ioos:station:NOAA.NERRS:gndpcwq:1,2016-02-14T09:00:00Z,30.3486,-88.4185,1.21,18.8,1111122 
NERRS,ioos:station:NOAA.NERRS:gndpcwq:1,2016-02-14T10:00:00Z,30.3486,-88.4185,1.26,20.6,1111122 
NERRS,ioos:station:NOAA.NERRS:gndpcwq:1,2016-02-14T11:00:00Z,30.3486,-88.4185,1.29,21.5,1111122 
NERRS,ioos:station:NOAA.NERRS:gndpcwq:1,2016-02-14T12:00:00Z,30.3486,-88.4185,1.34,22.3,1111122 
NERRS,ioos:station:NOAA.NERRS:gndpcwq:1,2016-02-14T13:00:00Z,30.3486,-88.4185,1.35,22.9,1111122 
NERRS,ioos:station:NOAA.NERRS:gndpcwq:1,2016-02-14T14:00:00Z,30.3486,-88.4185,1.39,23.1,1111122 
NERRS,ioos:station:NOAA.NERRS:gndpcwq:1,2016-02-14T15:00:00Z,30.3486,-88.4185,1.43,23.1,1111122 
NERRS,ioos:station:NOAA.NERRS:gndpcwq:1,2016-02-14T16:00:00Z,30.3486,-88.4185,1.49,23.1,1111122 
NERRS,ioos:station:NOAA.NERRS:gndpcwq:1,2016-02-14T17:00:00Z,30.3486,-88.4185,1.56,23.1,1111122 
NERRS,ioos:station:NOAA.NERRS:gndpcwq:1,2016-02-14T18:00:00Z,30.3486,-88.4185,1.62,23.0,1111122 
NERRS,ioos:station:NOAA.NERRS:gndpcwq:1,2016-02-14T19:00:00Z,30.3486,-88.4185,1.62,23.0,1111122 
NERRS,ioos:station:NOAA.NERRS:gndpcwq:1,2016-02-14T20:00:00Z,30.3486,-88.4185,1.62,23.0,1111122 
NERRS,ioos:station:NOAA.NERRS:gndpcwq:1,2016-02-14T21:00:00Z,30.3486,-88.4185,1.62,23.0,1111122 
NERRS,ioos:station:NOAA.NERRS:gndpcwq:1,2016-02-14T22:00:00Z,30.3486,-88.4185,1.6,23.0,1111122 
NERRS,ioos:station:NOAA.NERRS:gndpcwq:1,2016-02-14T23:00:00Z,30.3486,-88.4185,1.59,23.0,1111122 
NERRS,ioos:station:NOAA.NERRS:gndpcwq:1,2016-02-15T00:00:00Z,30.3486,-88.4185,1.56,22.9,1111122 
NERRS,ioos:station:NOAA.NERRS:gndpcwq:1,2016-02-15T01:00:00Z,30.3486,-88.4185,1.53,22.9,1111122 
NERRS,ioos:station:NOAA.NERRS:gndpcwq:1,2016-02-15T02:00:00Z,30.3486,-88.4185,1.46,22.8,1111122 
NERRS,ioos:station:NOAA.NERRS:gndpcwq:1,2016-02-15T03:00:00Z,30.3486,-88.4185,1.43,22.8,1111122 
NERRS,ioos:station:NOAA.NERRS:gndpcwq:1,2016-02-15T04:00:00Z,30.3486,-88.4185,1.38,22.7,1111122 
NERRS,ioos:station:NOAA.NERRS:gndpcwq:1,2016-02-15T05:00:00Z,30.3486,-88.4185,1.37,22.2,1111122 
NERRS,ioos:station:NOAA.NERRS:gndpcwq:1,2016-02-15T06:00:00Z,30.3486,-88.4185,1.34,22.2,1111122 
NERRS,ioos:station:NOAA.NERRS:gndpcwq:1,2016-02-15T07:00:00Z,30.3486,-88.4185,1.33,21.6,1111122 
NERRS,ioos:station:NOAA.NERRS:gndpcwq:1,2016-02-15T08:00:00Z,30.3486,-88.4185,1.33,21.0,1111122 
NERRS,ioos:station:NOAA.NERRS:gndpcwq:1,2016-02-15T09:00:00Z,30.3486,-88.4185,1.29,20.7,1111122 
NERRS,ioos:station:NOAA.NERRS:gndpcwq:1,2016-02-15T10:00:00Z,30.3486,-88.4185,1.28,20.6,1111122 
NERRS,ioos:station:NOAA.NERRS:gndpcwq:1,2016-02-15T11:00:00Z,30.3486,-88.4185,1.3,20.5,1111122 
NERRS,ioos:station:NOAA.NERRS:gndpcwq:1,2016-02-15T12:00:00Z,30.3486,-88.4185,1.36,19.5,1111122 
NERRS,ioos:station:NOAA.NERRS:gndpcwq:1,2016-02-15T13:00:00Z,30.3486,-88.4185,1.36,18.7,1111122 
NERRS,ioos:station:NOAA.NERRS:gndpcwq:1,2016-02-15T14:00:00Z,30.3486,-88.4185,1.41,18.7,1111122 
NERRS,ioos:station:NOAA.NERRS:gndpcwq:1,2016-02-15T15:00:00Z,30.3486,-88.4185,1.45,18.6,1111122 
NERRS,ioos:station:NOAA.NERRS:gndpcwq:1,2016-02-15T16:00:00Z,30.3486,-88.4185,1.48,18.6,1111122 
NERRS,ioos:station:NOAA.NERRS:gndpcwq:1,2016-02-15T17:00:00Z,30.3486,-88.4185,1.55,18.6,1111122 
NERRS,ioos:station:NOAA.NERRS:gndpcwq:1,2016-02-15T18:00:00Z,30.3486,-88.4185,1.59,18.6,1111122 
NERRS,ioos:station:NOAA.NERRS:gndpcwq:1,2016-02-15T19:00:00Z,30.3486,-88.4185,1.66,18.4,1111122 
NERRS,ioos:station:NOAA.NERRS:gndpcwq:1,2016-02-15T20:00:00Z,30.3486,-88.4185,1.73,17.4,1111122 
NERRS,ioos:station:NOAA.NERRS:gndpcwq:1,2016-02-15T21:00:00Z,30.3486,-88.4185,1.76,17.1,1111122 
NERRS,ioos:station:NOAA.NERRS:gndpcwq:1,2016-02-15T22:00:00Z,30.3486,-88.4185,1.73,17.0,1111122 
NERRS,ioos:station:NOAA.NERRS:gndpcwq:1,2016-02-15T23:00:00Z,30.3486,-88.4185,1.82,17.2,1111122 
NERRS,ioos:station:NOAA.NERRS:gndpcwq:1,2016-02-16T00:00:00Z,30.3486,-88.4185,1.73,17.8,1111122 
NERRS,ioos:station:NOAA.NERRS:gndpcwq:1,2016-02-16T01:00:00Z,30.3486,-88.4185,1.62,18.0,1111122 
NERRS,ioos:station:NOAA.NERRS:gndpcwq:1,2016-02-16T02:00:00Z,30.3486,-88.4185,1.49,17.6,1111122 
NERRS,ioos:station:NOAA.NERRS:gndpcwq:1,2016-02-16T03:00:00Z,30.3486,-88.4185,1.34,17.7,1111122 
NERRS,ioos:station:NOAA.NERRS:gndpcwq:1,2016-02-16T04:00:00Z,30.3486,-88.4185,1.3,17.8,1111122 
NERRS,ioos:station:NOAA.NERRS:gndpcwq:1,2016-02-16T05:00:00Z,30.3486,-88.4185,1.33,17.7,1111122 
NERRS,ioos:station:NOAA.NERRS:gndpcwq:1,2016-02-16T06:00:00Z,30.3486,-88.4185,1.34,17.7,1111122 
NERRS,ioos:station:NOAA.NERRS:gndpcwq:1,2016-02-16T07:00:00Z,30.3486,-88.4185,1.19,17.8,1111122 
NERRS,ioos:station:NOAA.NERRS:gndpcwq:1,2016-02-16T08:00:00Z,30.3486,-88.4185,1.1,17.8,1111122 
NERRS,ioos:station:NOAA.NERRS:gndpcwq:1,2016-02-16T09:00:00Z,30.3486,-88.4185,1.05,17.6,1111122 
NERRS,ioos:station:NOAA.NERRS:gndpcwq:1,2016-02-16T10:00:00Z,30.3486,-88.4185,1.09,17.6,1111122 
NERRS,ioos:station:NOAA.NERRS:gndpcwq:1,2016-02-16T11:00:00Z,30.3486,-88.4185,1.11,17.9,1111122 
NERRS,ioos:station:NOAA.NERRS:gndpcwq:1,2016-02-16T12:00:00Z,30.3486,-88.4185,1.18,17.8,1111122 
NERRS,ioos:station:NOAA.NERRS:gndpcwq:1,2016-02-16T13:00:00Z,30.3486,-88.4185,1.27,17.8,1111122 
NERRS,ioos:station:NOAA.NERRS:gndpcwq:1,2016-02-16T14:00:00Z,30.3486,-88.4185,1.39,17.9,1111122 
NERRS,ioos:station:NOAA.NERRS:gndpcwq:1,2016-02-16T15:00:00Z,30.3486,-88.4185,1.44,18.1,1111122 
NERRS,ioos:station:NOAA.NERRS:gndpcwq:1,2016-02-16T16:00:00Z,30.3486,-88.4185,1.46,18.1,1111122 
NERRS,ioos:station:NOAA.NERRS:gndpcwq:1,2016-02-16T17:00:00Z,30.3486,-88.4185,1.43,18.0,1111122 
NERRS,ioos:station:NOAA.NERRS:gndpcwq:1,2016-02-16T18:00:00Z,30.3486,-88.4185,1.52,18.1,1111122 
NERRS,ioos:station:NOAA.NERRS:gndpcwq:1,2016-02-16T19:00:00Z,30.3486,-88.4185,1.58,18.1,1111122 
NERRS,ioos:station:NOAA.NERRS:gndpcwq:1,2016-02-16T20:00:00Z,30.3486,-88.4185,1.61,18.0,1111122 
NERRS,ioos:station:NOAA.NERRS:gndpcwq:1,2016-02-16T21:00:00Z,30.3486,-88.4185,1.62,17.9,1111122 
NERRS,ioos:station:NOAA.NERRS:gndpcwq:1,2016-02-16T22:00:00Z,30.3486,-88.4185,1.6,17.9,1111122 
NERRS,ioos:station:NOAA.NERRS:gndpcwq:1,2016-02-16T23:00:00Z,30.3486,-88.4185,1.56,17.9,1111122 
NERRS,ioos:station:NOAA.NERRS:gndpcwq:1,2016-02-17T00:00:00Z,30.3486,-88.4185,1.55,17.8,1111122 
NERRS,ioos:station:NOAA.NERRS:gndpcwq:1,2016-02-17T01:00:00Z,30.3486,-88.4185,1.55,17.8,1111122 
NERRS,ioos:station:NOAA.NERRS:gndpcwq:1,2016-02-17T02:00:00Z,30.3486,-88.4185,1.55,17.9,1111122 
NERRS,ioos:station:NOAA.NERRS:gndpcwq:1,2016-02-17T03:00:00Z,30.3486,-88.4185,1.5,17.8,1111122 
NERRS,ioos:station:NOAA.NERRS:gndpcwq:1,2016-02-17T04:00:00Z,30.3486,-88.4185,1.45,17.7,1111122 
NERRS,ioos:station:NOAA.NERRS:gndpcwq:1,2016-02-17T05:00:00Z,30.3486,-88.4185,1.35,17.6,1111122 
NERRS,ioos:station:NOAA.NERRS:gndpcwq:1,2016-02-17T06:00:00Z,30.3486,-88.4185,1.25,17.6,1111122 
NERRS,ioos:station:NOAA.NERRS:gndpcwq:1,2016-02-17T07:00:00Z,30.3486,-88.4185,1.18,17.6,1111122 
NERRS,ioos:station:NOAA.NERRS:gndpcwq:1,2016-02-17T08:00:00Z,30.3486,-88.4185,1.14,17.6,1111122 
NERRS,ioos:station:NOAA.NERRS:gndpcwq:1,2016-02-17T09:00:00Z,30.3486,-88.4185,1.09,17.6,1111122 
NERRS,ioos:station:NOAA.NERRS:gndpcwq:1,2016-02-17T10:00:00Z,30.3486,-88.4185,1.02,17.7,1111122 
NERRS,ioos:station:NOAA.NERRS:gndpcwq:1,2016-02-17T11:00:00Z,30.3486,-88.4185,0.98,17.7,1111122 
NERRS,ioos:station:NOAA.NERRS:gndpcwq:1,2016-02-17T12:00:00Z,30.3486,-88.4185,0.98,17.7,1111122 
NERRS,ioos:station:NOAA.NERRS:gndpcwq:1,2016-02-17T13:00:00Z,30.3486,-88.4185,1.02,17.7,1111122 
NERRS,ioos:station:NOAA.NERRS:gndpcwq:1,2016-02-17T14:00:00Z,30.3486,-88.4185,1.11,17.7,1111122 
NERRS,ioos:station:NOAA.NERRS:gndpcwq:1,2016-02-17T15:00:00Z,30.3486,-88.4185,1.19,17.6,1111122 
NERRS,ioos:station:NOAA.NERRS:gndpcwq:1,2016-02-17T16:00:00Z,30.3486,-88.4185,1.29,17.7,1111122 
NERRS,ioos:station:NOAA.NERRS:gndpcwq:1,2016-02-17T17:00:00Z,30.3486,-88.4185,1.36,17.8,1111122 
NERRS,ioos:station:NOAA.NERRS:gndpcwq:1,2016-02-17T18:00:00Z,30.3486,-88.4185,1.42,21.2,1111122 
NERRS,ioos:station:NOAA.NERRS:gndpcwq:1,2016-02-17T19:00:00Z,30.3486,-88.4185,1.47,22.5,1111122 
NERRS,ioos:station:NOAA.NERRS:gndpcwq:1,2016-02-17T20:00:00Z,30.3486,-88.4185,1.52,22.3,1111122 
NERRS,ioos:station:NOAA.NERRS:gndpcwq:1,2016-02-17T21:00:00Z,30.3486,-88.4185,1.57,22.1,1111122 
NERRS,ioos:station:NOAA.NERRS:gndpcwq:1,2016-02-17T22:00:00Z,30.3486,-88.4185,1.6,22.1,1111122 
NERRS,ioos:station:NOAA.NERRS:gndpcwq:1,2016-02-17T23:00:00Z,30.3486,-88.4185,1.59,22.1,1111122 
NERRS,ioos:station:NOAA.NERRS:gndpcwq:1,2016-02-18T00:00:00Z,30.3486,-88.4185,1.56,22.2,1111122 
NERRS,ioos:station:NOAA.NERRS:gndpcwq:1,2016-02-18T01:00:00Z,30.3486,-88.4185,1.54,22.2,1111122 
NERRS,ioos:station:NOAA.NERRS:gndpcwq:1,2016-02-18T02:00:00Z,30.3486,-88.4185,1.51,21.9,1111122 
NERRS,ioos:station:NOAA.NERRS:gndpcwq:1,2016-02-18T03:00:00Z,30.3486,-88.4185,1.46,21.7,1111122 
NERRS,ioos:station:NOAA.NERRS:gndpcwq:1,2016-02-18T04:00:00Z,30.3486,-88.4185,1.38,21.9,1111122 
NERRS,ioos:station:NOAA.NERRS:gndpcwq:1,2016-02-18T05:00:00Z,30.3486,-88.4185,1.27,21.9,1111122 
NERRS,ioos:station:NOAA.NERRS:gndpcwq:1,2016-02-18T06:00:00Z,30.3486,-88.4185,1.18,21.8,1111122 